User: anonymous   Login
Location: Ballingbuur
(53.0000°N, 5.7667°E)
Time: 23:23:25
(UTC+00:00)
Language:

Cosmos 1680 Rocket - Orbit

View from above orbital plane
View from above orbital plane
View from above satellite
View from above satellite

Ground track
Ground track

The orbit data is extracted from the following two-line orbital elements,

1 16012U 85079B   21060.58085442  .00000058  00000-0  28672-4 0  9996
2 16012  74.0605 172.7024 0013767  98.9193 261.3519 14.36362151858101
Epoch (UTC): 01 March 2021 13:56:25
Eccentricity: 0.0013767
inclination: 74.0605°
perigee height: 761 km
apogee height: 780 km
right ascension of ascending node: 172.7024°
argument of perigee: 98.9193°
revolutions per day: 14.36362151
mean anomaly at epoch: 261.3519°
orbit number at epoch: 85810

The dashed part of the orbit path shows where the satellite is in the earth's shadow,  

DLR